Wind_Gust
13 13 12 12 13 14 15 15 16 16 16 17 17 17 17 18 18 18 18 18 18 19 19 20 20 21 21 22 22 23 22 26 28 23 22 30 9 9 12 10 9 10 7 15 18 19 20 20 20 18 20 19 21 23 20 21 19 17 21 21 21 20 22 16 23 25 16 22 15 12 16 13 14 14 13 13 18 13 10 13 25 25 15 11 12 20 28 27
13 13 12 12 12 13 14 15 15 15 16 16 17 18 18 18 18 18 18 18 18 19 19 20 20 20 21 21 22 22 25 25 26 26 33 14 16 12 11 9 8 9 9 20 20 21 20 19 19 19 21 22 16 23 17 24 19 22 20 22 24 20 12 15 20 13 13 24 10 11 9 11 14 11 16 22 14 15 19 17 18 23 18 16 18 23 24 25
14 13 13 13 12 13 14 15 15 15 16 16 17 17 18 18 18 18 18 18 18 18 19 19 20 20 21 21 21 19 25 27 26 30 28 20 15 13 12 10 10 11 22 21 20 20 20 17 18 20 21 22 20 22 19 21 21 21 23 23 23 22 20 14 14 13 14 14 10 10 10 8 14 17 9 16 13 14 20 18 20 23 21 19 17 19 21 23
14 14 14 14 14 13 14 16 16 16 16 17 17 17 17 18 18 18 18 18 18 18 18 20 20 20 21 21 19 25 23 24 28 12 24 12 16 13 10 11 12 16 23 24 17 20 19 16 17 19 20 23 19 21 21 18 23 20 25 26 25 14 18 11 15 15 11 12 16 11 13 13 18 16 15 16 15 20 21 21 15 30 23 19 17 17 18 20
14 15 14 14 14 14 14 16 17 17 18 18 18 18 18 18 18 18 19 18 18 18 18 19 20 20 21 21 19 24 21 22 16 20 16 10 13 12 11 8 12 19 23 21 22 20 20 19 18 18 23 22 20 17 21 18 22 17 21 22 25 25 14 18 9 11 12 13 16 18 19 19 16 12 20 19 21 22 26 21 20 33 24 19 19 19 18 19
14 15 15 15 15 15 14 15 16 17 18 18 18 18 18 18 18 19 19 19 19 18 18 18 20 20 21 20 27 21 18 11 18 16 9 8 12 11 10 8 11 18 20 22 21 19 21 19 20 21 23 22 19 21 18 23 18 25 19 21 23 21 19 14 11 8 8 14 16 16 15 16 12 18 16 17 21 20 19 13 30 35 29 23 20 19 18 22
14 15 15 15 15 15 15 15 16 17 18 19 19 19 19 19 18 19 20 20 20 19 19 18 19 21 20 22 29 21 22 30 18 15 12 10 12 13 10 9 10 16 19 21 20 23 21 20 21 20 20 21 22 24 19 19 19 22 26 17 20 21 22 19 17 11 13 13 16 17 17 18 15 18 18 20 16 16 18 7 29 38 35 29 25 22 20 22
14 14 15 16 16 15 15 15 16 18 18 19 19 19 19 18 19 20 20 20 20 19 20 19 19 20 19 24 20 22 23 26 17 17 15 17 18 16 13 16 19 19 19 22 19 22 18 23 23 20 23 22 17 23 17 19 19 24 28 21 23 18 14 16 15 15 16 17 16 15 19 20 20 20 22 18 16 19 23 13 15 32 32 27 26 24 19 29
14 15 15 16 16 16 15 15 16 17 18 18 19 19 19 20 20 20 21 21 21 20 19 20 19 18 15 19 19 21 21 13 20 22 23 22 20 18 20 22 22 20 20 20 20 19 18 21 23 22 22 22 20 18 15 17 22 25 23 19 19 20 18 15 16 16 16 18 15 18 19 19 21 18 24 21 19 25 20 9 11 29 31 25 23 21 27 22
15 15 15 16 16 16 16 15 16 17 18 18 19 19 19 19 20 20 21 22 22 21 20 20 19 17 22 19 19 20 13 15 21 21 19 20 21 20 22 18 24 22 21 20 19 20 21 19 21 18 23 25 22 16 16 18 18 14 16 19 21 21 21 17 20 19 17 18 16 20 19 21 19 21 25 19 28 28 14 15 16 18 26 21 25 24 19 23
16 16 16 16 16 16 16 16 16 17 18 19 19 19 20 20 20 21 21 22 22 22 21 19 17 18 20 18 22 21 12 12 16 18 17 20 21 22 22 21 23 24 21 18 19 19 18 22 12 16 16 25 13 18 18 22 20 20 19 17 18 19 22 21 19 17 17 21 19 21 21 20 21 23 22 22 23 21 16 18 18 14 31 36 26 21 13 18
17 16 16 17 17 16 16 16 16 17 18 19 19 19 20 20 21 21 22 23 23 23 21 18 15 21 19 21 25 29 8 8 11 14 19 19 22 22 19 19 21 21 19 18 17 14 18 16 14 18 18 11 25 14 22 22 21 19 16 20 20 21 29 23 27 23 19 23 17 16 19 23 22 24 19 30 29 22 18 17 14 28 35 29 27 25 19 18
17 17 17 17 17 18 17 17 17 18 18 19 20 20 21 21 21 21 22 23 21 20 17 16 14 19 18 20 30 35 18 11 11 13 16 19 20 21 18 16 19 20 17 16 16 17 14 14 12 19 21 21 15 23 17 13 19 18 18 22 22 24 26 26 26 22 21 21 19 13 22 20 26 27 24 26 29 16 15 18 16 26 26 27 25 24 21 15
17 17 17 17 18 18 18 17 18 19 20 19 20 21 22 22 22 23 23 22 22 21 18 11 19 19 18 24 22 12 10 10 12 14 17 20 21 21 18 16 18 17 10 15 13 8 12 13 15 20 21 23 24 16 17 18 13 21 18 21 23 21 26 24 28 23 22 18 16 11 23 22 26 26 28 30 30 21 19 18 18 24 25 24 23 21 21 17
18 18 18 18 18 19 19 19 18 19 21 21 21 21 22 22 23 23 21 19 19 17 13 11 19 16 18 24 23 15 9 11 15 17 19 22 21 18 17 16 17 15 13 14 13 10 12 13 16 20 23 19 23 20 20 22 20 21 23 24 23 23 24 26 25 21 21 18 16 17 23 24 26 28 30 32 29 25 16 18 20 21 26 25 24 20 16 16
18 18 18 18 19 19 20 20 20 20 21 22 22 22 23 24 22 20 20 18 17 12 17 16 20 23 21 29 16 10 17 21 21 19 20 20 20 18 18 17 15 16 13 15 15 11 14 15 20 19 21 17 21 22 20 21 23 24 22 17 22 22 22 16 22 22 21 17 16 21 23 21 21 18 16 22 22 15 19 20 16 21 26 23 23 19 17 16
18 18 18 19 19 20 20 21 20 21 21 22 23 23 23 21 18 15 16 16 15 15 18 17 18 24 16 16 14 18 23 23 16 21 21 20 19 20 21 18 20 18 15 15 15 13 16 19 17 23 22 25 20 23 23 22 21 24 24 22 21 23 20 23 24 21 22 18 19 22 23 21 28 26 17 19 14 15 18 20 22 14 27 21 22 19 18 16
18 19 19 19 20 20 21 21 21 21 22 22 21 25 30 20 18 17 16 15 18 19 21 25 22 18 37 35 22 27 24 18 22 24 20 21 19 18 19 22 16 18 17 19 18 20 19 24 21 22 19 23 23 23 26 24 23 20 20 20 22 23 26 18 27 27 14 17 20 19 20 19 24 20 16 17 19 20 22 23 22 22 27 24 20 19 19 18
18 19 20 20 20 21 21 21 21 21 21 21 26 29 24 18 17 18 18 19 18 15 16 24 23 24 20 24 25 14 21 17 18 21 24 23 22 19 16 17 18 20 22 21 22 22 23 21 20 21 24 24 26 25 26 25 22 24 22 20 21 20 21 23 16 26 15 19 18 19 22 17 21 23 22 14 15 21 20 18 21 23 29 24 22 24 19 17
18 19 20 20 21 21 21 20 20 21 21 21 24 24 15 15 14 14 21 22 28 22 17 18 33 25 11 16 21 13 19 17 20 20 21 22 23 21 22 22 20 22 23 24 22 24 19 21 23 23 23 22 22 24 25 26 27 24 21 19 22 25 26 22 21 22 14 11 14 17 18 20 20 22 21 21 24 23 20 18 21 22 26 25 25 22 22 19
19 19 20 20 21 21 21 19 18 18 18 22 23 20 16 17 17 12 14 23 28 29 31 24 26 24 24 10 17 20 20 19 17 19 22 21 21 21 26 25 24 24 26 23 21 19 22 23 22 22 22 23 22 22 21 28 27 25 19 21 21 17 18 16 22 29 30 15 17 19 21 22 23 23 23 24 22 26 20 20 20 22 23 26 28 27 25 23
19 20 20 21 22 22 22 20 18 19 17 23 20 19 23 14 14 13 18 24 21 33 32 26 22 26 24 16 9 15 14 20 21 20 22 23 24 28 24 26 25 26 21 26 22 21 23 25 22 23 23 20 21 20 21 26 26 22 20 22 23 21 18 19 23 19 10 12 16 19 24 24 24 25 24 23 21 25 26 17 19 21 22 22 31 25 26 27
18 20 20 21 22 22 22 22 19 17 25 19 22 24 27 15 13 12 16 25 30 25 27 31 26 23 23 18 20 12 17 22 25 24 30 22 24 28 23 28 24 25 25 23 25 21 21 25 28 26 21 20 22 19 13 14 18 14 20 25 25 20 21 23 22 24 23 18 15 19 23 22 19 19 18 16 22 22 26 28 22 22 23 24 25 28 29 26
18 19 20 21 22 22 22 20 21 22 24 24 23 26 18 13 13 15 18 20 20 18 28 27 26 25 24 26 28 23 23 25 23 27 26 29 27 23 27 25 24 26 27 24 26 24 24 26 31 25 23 24 20 15 15 15 19 20 23 25 25 24 26 27 21 12 13 11 12 19 27 29 23 27 29 25 27 28 26 26 25 23 24 22 21 25 29 28
18 19 20 21 22 23 21 23 18 19 18 20 25 23 13 10 11 13 17 19 26 29 19 20 20 21 24 19 17 32 24 24 22 20 33 25 27 26 26 25 27 27 24 24 25 27 26 26 15 18 25 22 15 18 21 19 22 22 21 25 25 24 23 22 24 24 26 23 26 24 28 29 24 30 32 29 29 31 29 27 26 23 22 22 25 22 24 32
18 19 20 21 23 21 23 19 14 15 17 20 15 15 8 10 11 12 16 18 18 26 23 23 22 27 20 23 17 22 17 31 23 24 30 26 23 26 24 29 29 26 25 25 27 27 25 22 17 17 10 12 18 21 18 20 23 21 23 23 25 28 26 25 24 22 22 25 20 19 28 29 18 22 21 25 27 29 30 26 23 23 23 24 22 21 20 29
18 18 19 20 21 20 20 10 22 22 17 18 9 7 9 9 9 12 17 19 21 33 24 26 24 24 21 19 23 18 19 29 26 25 25 28 28 23 25 24 25 25 24 26 27 34 24 26 21 19 21 20 20 23 21 21 24 27 17 19 24 27 32 30 26 26 27 19 24 22 24 27 26 22 22 22 22 18 19 18 22 22 21 26 19 17 21 23
18 19 19 20 20 15 19 27 24 19 14 13 10 8 11 9 9 10 15 14 20 27 26 25 13 20 18 22 21 30 14 15 33 30 25 28 25 26 30 23 24 22 25 26 29 14 16 25 22 16 15 22 25 21 18 22 26 22 20 27 22 19 23 21 23 26 25 23 28 25 24 33 29 25 24 26 27 19 21 18 27 25 24 19 18 20 23 24
18 18 19 20 22 24 26 22 19 23 17 14 11 12 10 9 13 18 15 13 29 31 22 21 14 19 13 21 23 26 14 18 15 26 25 23 27 24 31 28 27 23 22 22 24 22 27 18 18 17 19 22 19 19 20 20 25 20 25 19 22 14 18 21 23 23 21 25 27 23 22 34 27 17 19 17 22 23 17 21 20 22 23 21 24 22 20 21
18 18 18 18 23 23 21 21 25 24 21 15 12 10 10 11 16 15 14 14 23 20 25 18 23 22 21 24 23 23 22 19 19 22 29 29 24 26 26 17 26 27 27 26 26 25 14 21 22 32 30 25 18 19 18 19 18 15 16 18 17 18 21 21 22 25 23 28 29 25 23 28 33 18 17 15 17 19 17 14 15 17 17 20 19 20 18 21
18 19 18 16 21 19 22 21 27 29 23 13 11 13 12 14 18 19 14 15 25 18 24 23 23 20 26 24 25 25 22 19 17 19 26 24 25 26 22 22 23 25 26 24 29 28 27 15 17 20 15 19 19 22 20 18 16 19 19 19 17 20 21 23 25 23 27 31 25 24 26 21 30 19 15 17 14 20 17 16 15 16 13 13 12 17 17 19
19 19 19 22 25 24 21 15 20 22 11 11 10 15 18 17 21 18 21 16 22 23 20 24 20 25 25 22 23 32 29 23 21 27 26 29 24 32 31 25 26 27 27 25 27 24 27 31 20 18 19 24 23 22 23 26 24 23 21 21 23 24 23 26 24 27 28 29 21 22 23 26 29 24 20 20 26 24 22 20 18 16 17 17 18 18 18 18
17 20 24 28 22 23 28 30 27 19 13 10 15 17 18 16 19 22 22 16 17 19 28 16 27 20 23 23 26 27 21 23 24 24 23 27 26 27 26 31 22 29 23 24 25 24 24 28 28 23 19 25 26 26 24 28 26 21 24 23 24 25 24 19 21 22 25 25 21 26 13 27 15 24 19 18 17 17 16 15 17 17 15 16 15 13 16 17
19 20 29 21 23 26 23 19 20 16 12 12 16 18 17 16 19 14 17 25 15 13 16 18 15 12 16 23 20 24 26 22 25 28 26 26 29 26 30 31 27 26 28 16 30 23 20 26 31 26 26 21 29 28 22 19 19 26 22 26 23 25 27 20 22 22 20 18 17 18 25 21 23 15 17 18 19 13 15 16 11 9 10 12 12 13 8 13
23 29 27 26 26 29 27 25 21 14 13 15 18 21 16 20 20 15 18 17 23 10 14 12 17 18 20 22 21 23 20 25 26 23 26 26 27 27 27 30 31 27 23 23 19 20 24 25 15 25 19 26 26 24 26 24 23 23 25 24 26 25 15 25 11 15 13 17 19 16 22 17 18 16 14 14 17 16 13 14 11 10 14 12 14 15 15 15
25 24 19 22 22 21 24 23 17 14 15 17 20 19 21 22 19 19 16 19 21 13 15 15 17 19 20 22 20 20 23 16 20 24 25 26 25 28 23 27 35 30 28 27 16 22 22 29 18 18 24 25 24 22 26 23 26 18 24 28 25 17 20 15 16 20 9 11 23 19 15 15 21 17 14 16 13 14 12 10 11 14 16 16 15 16 15 15
21 22 20 21 23 20 21 20 19 16 15 18 20 17 21 24 13 16 14 16 18 11 11 19 24 23 18 23 24 22 19 16 15 23 25 22 29 26 27 25 23 30 30 25 23 17 17 15 17 21 23 25 21 23 22 24 25 19 22 22 20 19 19 21 19 11 17 22 20 22 23 20 22 15 15 12 13 11 13 13 11 8 12 13 12 9 9 9
22 20 21 18 19 21 20 21 17 17 19 18 18 14 16 24 14 11 13 16 15 13 20 18 11 16 22 22 23 22 19 19 18 25 20 20 27 20 24 28 25 27 30 26 24 18 20 23 21 22 20 21 22 21 25 24 24 26 22 10 19 21 19 19 17 18 18 20 20 23 23 17 22 11 11 12 13 11 11 11 10 11 15 9 11 11 11 12
20 21 17 17 16 16 20 19 18 20 19 20 17 16 21 24 19 11 17 15 13 16 18 17 18 17 20 17 10 14 20 21 16 22 21 21 28 19 17 21 16 23 22 24 30 14 11 19 20 18 21 18 22 23 25 24 25 26 23 26 15 20 14 13 21 19 21 20 17 21 22 11 16 10 12 13 9 14 12 7 17 17 17 17 13 13 13 13
19 16 16 17 16 16 19 19 19 20 22 20 18 23 12 19 12 11 9 12 15 18 17 18 10 17 18 16 14 14 15 17 18 17 22 14 14 13 17 10 15 14 17 19 25 24 19 15 20 14 18 19 27 26 24 21 22 28 28 26 23 23 12 16 12 17 20 21 22 15 15 13 11 14 11 12 12 11 12 16 16 15 12 16 21 22 22 23
20 15 16 15 18 19 21 20 21 24 23 22 22 25 17 14 10 11 9 8 18 11 18 14 16 14 11 21 17 8 10 19 15 16 18 15 11 11 15 21 11 21 29 20 19 8 10 16 17 16 22 23 20 22 22 23 19 20 22 26 24 21 24 22 22 23 29 30 20 18 12 14 9 13 15 13 9 12 17 15 11 11 16 19 20 20 21 21
17 14 17 17 18 19 22 20 23 22 24 22 20 22 13 9 12 11 12 11 14 15 14 16 13 16 14 16 13 16 21 21 15 17 15 12 11 14 13 17 15 13 16 16 20 11 13 10 14 15 20 19 15 10 18 22 21 22 24 27 25 24 24 26 23 17 17 23 21 14 9 11 16 17 19 17 16 15 11 10 9 16 16 17 19 18 17 19
22 10 14 21 17 19 19 19 16 20 22 15 14 13 13 14 16 11 12 12 16 14 13 13 13 14 13 17 11 13 13 20 15 14 16 17 10 11 9 21 21 18 20 25 23 16 5 15 19 21 19 19 22 14 9 21 21 22 21 22 22 26 27 28 23 14 13 8 15 14 12 10 10 17 16 11 9 16 19 18 18 18 18 18 19 17 17 18
13 11 15 17 17 16 12 17 16 15 21 11 11 10 10 14 15 11 18 17 18 18 15 13 10 12 14 9 11 14 8 13 9 12 16 12 11 7 10 13 17 21 17 11 10 12 12 17 20 18 18 18 20 20 18 16 25 20 19 22 30 29 27 20 16 12 10 14 12 15 11 6 11 13 17 11 13 17 19 17 18 19 16 16 15 16 16 17
11 15 18 23 20 18 19 17 15 10 15 10 11 13 14 15 10 14 16 10 9 9 11 12 11 11 14 11 14 15 11 13 14 10 19 15 11 14 14 12 13 16 11 13 6 9 12 10 9 17 19 20 21 21 21 13 13 19 19 24 26 29 28 24 10 17 19 13 14 10 10 11 9 15 13 10 14 14 18 19 19 18 15 15 15 14 15 16
12 13 18 20 21 20 20 26 26 17 13 12 5 12 13 10 14 10 12 11 8 13 10 14 15 12 15 11 12 14 17 12 12 11 12 20 20 15 9 7 11 15 11 7 9 13 11 10 13 15 18 13 12 16 14 20 11 13 18 20 23 24 32 19 12 13 16 20 11 11 17 19 13 12 12 13 15 17 19 19 18 17 16 14 14 16 17 18
9 15 20 19 18 19 18 22 21 11 11 11 11 14 13 14 10 20 11 15 11 14 16 16 16 15 14 12 11 14 17 18 16 15 13 17 14 16 10 9 10 12 7 8 6 10 10 13 10 10 11 16 11 14 16 17 15 10 14 16 19 25 24 25 19 11 17 14 10 9 15 21 15 13 14 15 16 18 19 17 17 19 19 19 17 18 17 21
12 14 17 14 15 17 15 15 13 9 11 15 9 10 9 12 11 9 10 15 15 12 15 14 12 15 10 12 9 10 12 13 13 12 8 10 16 17 16 13 10 7 10 9 8 10 9 7 13 11 12 12 9 8 20 19 12 11 16 13 17 18 22 19 11 15 15 9 10 11 12 16 16 16 17 18 17 19 18 18 18 18 20 21 21 22 22 22
13 18 15 21 10 12 10 9 8 10 13 9 10 9 10 9 10 11 10 7 10 10 14 5 16 20 14 17 12 12 11 11 9 7 12 9 9 11 10 9 10 13 8 7 9 10 11 12 17 12 9 14 11 10 12 26 21 12 16 16 14 18 15 15 17 20 17 17 15 20 20 18 16 15 17 18 17 18 18 17 20 22 22 21 22 22 23 23
12 11 12 13 12 13 11 12 11 11 11 9 9 9 8 10 9 13 15 10 6 7 10 10 9 16 9 12 12 11 7 10 11 6 9 8 9 7 8 6 9 13 15 9 9 10 10 7 11 9 13 9 9 7 13 18 19 18 21 21 21 18 17 21 22 20 13 14 12 13 15 14 12 12 16 17 18 18 21 22 21 19 20 20 21 21 22 23
12 21 22 14 11 15 12 12 11 11 13 12 13 13 10 11 9 9 8 14 8 8 11 9 10 13 9 11 9 9 12 7 7 7 11 9 10 7 8 10 14 5 6 9 8 7 9 7 10 12 9 6 9 10 13 16 11 22 25 24 22 19 18 21 20 16 15 15 12 12 14 11 10 13 16 18 18 21 22 20 18 19 19 19 20 21 22 23
24 23 18 14 11 7 13 11 12 15 11 12 11 13 9 9 13 10 8 14 12 13 7 9 10 13 9 11 8 8 11 10 12 13 15 13 11 12 10 9 11 9 7 10 8 12 10 12 10 8 9 8 15 10 11 17 11 13 20 20 17 15 16 22 21 21 19 12 13 13 11 15 15 14 16 18 19 20 21 20 17 17 17 19 19 20 21 21
Wind_Speed
10 10 9 9 9 9 9 10 12 12 13 14 14 14 14 14 15 14 14 15 15 15 15 16 16 17 17 17 18 19 18 13 16 12 12 17 2 8 10 8 8 8 5 7 10 10 11 11 12 10 9 8 8 9 9 11 8 7 7 7 8 8 10 7 11 10 8 11 8 6 8 6 6 7 5 6 8 5 3 5 15 11 8 4 6 12 15 15
10 10 10 9 9 9 9 9 11 12 12 13 14 14 14 14 14 15 14 14 15 15 15 15 16 16 17 17 18 18 16 14 15 16 20 1 12 10 9 8 6 8 6 10 11 12 11 10 11 10 9 8 8 9 8 7 8 8 6 8 10 9 3 8 8 8 6 12 4 4 2 5 6 4 3 10 8 7 9 9 11 14 10 10 9 13 14 15
11 10 10 10 10 9 9 10 10 12 13 13 13 14 14 14 14 15 15 14 14 14 15 15 16 16 17 17 17 16 15 15 14 17 16 17 12 11 10 8 8 8 11 12 12 11 11 9 9 10 9 9 9 10 10 7 9 9 9 9 10 13 10 8 6 2 6 8 2 5 4 1 6 6 2 6 7 6 11 6 12 14 13 12 9 11 13 13
11 11 11 11 11 10 9 10 11 12 13 14 14 14 14 14 14 14 15 15 14 14 14 16 16 16 17 17 15 15 13 14 11 2 11 10 13 11 8 9 10 10 12 14 10 10 11 9 9 10 9 9 7 11 10 6 7 8 10 10 11 5 6 3 6 9 5 6 7 5 4 4 9 5 7 7 8 10 7 12 7 19 14 12 11 10 11 12
11 12 11 11 11 11 10 10 10 12 13 14 14 14 14 14 14 15 15 15 14 14 14 14 16 16 16 17 15 12 11 8 3 8 8 7 11 10 9 7 9 10 13 12 12 12 11 11 9 9 9 7 10 8 9 8 9 6 10 13 14 14 8 9 2 5 4 6 8 9 12 7 8 6 8 12 11 9 5 9 13 17 16 12 12 13 10 11
11 12 12 12 12 11 11 10 11 12 13 14 14 15 15 14 14 15 15 15 15 15 14 14 15 15 17 16 15 10 6 0 5 7 8 7 10 8 8 6 8 9 10 12 11 10 12 11 10 9 8 10 10 9 9 11 9 10 8 12 13 12 10 8 4 1 3 5 8 9 8 7 6 8 8 9 11 11 11 8 20 16 16 12 12 10 9 9
10 11 12 12 12 12 12 11 11 12 13 14 15 15 15 15 15 15 16 16 16 15 15 14 14 16 15 17 14 10 8 10 10 6 8 8 9 10 7 6 7 7 10 11 11 10 12 11 11 10 9 10 12 11 10 10 11 10 10 8 11 11 13 12 10 4 4 4 8 8 9 10 7 10 8 12 10 9 8 1 19 17 16 14 13 12 10 7
11 11 12 12 13 12 12 11 11 12 13 14 14 15 15 15 15 15 16 16 16 15 16 15 14 14 15 12 8 9 11 12 6 8 9 12 11 10 8 8 9 10 10 12 10 12 10 13 12 10 10 9 7 11 9 11 11 11 12 12 13 11 6 8 8 7 8 9 9 9 9 11 11 10 12 11 7 9 15 5 10 18 16 13 13 12 10 17
11 12 12 13 13 13 12 12 11 12 13 13 14 15 15 16 15 16 16 17 17 16 15 15 14 12 11 8 7 9 8 5 12 12 14 13 12 11 11 9 12 11 10 10 12 11 10 10 13 11 10 12 11 11 8 8 8 12 12 11 10 11 11 8 9 9 8 7 6 9 11 10 12 12 12 13 10 14 13 3 1 20 18 14 14 14 15 10
12 12 12 13 13 13 13 12 12 12 13 14 14 15 15 16 16 16 17 17 17 17 16 15 14 12 11 7 9 8 3 9 12 12 12 13 13 12 13 10 14 13 11 11 11 12 11 8 12 10 14 15 13 9 8 9 7 4 7 11 12 12 12 10 11 11 10 9 8 11 11 11 11 9 9 10 15 18 9 3 9 10 13 12 15 10 11 14
13 13 13 13 13 13 13 13 12 13 13 14 15 15 16 16 16 17 17 17 18 17 17 15 12 11 8 7 9 9 4 6 8 9 10 12 13 13 12 11 13 12 12 10 11 11 11 13 6 6 5 9 6 10 8 9 12 10 11 9 10 10 11 12 12 9 6 9 11 12 12 11 13 11 10 10 13 13 5 9 9 1 19 14 13 8 4 6
13 13 13 13 13 13 13 13 13 13 13 14 15 15 16 16 17 17 18 18 18 18 17 14 11 6 8 9 10 12 1 2 2 6 9 11 12 12 12 11 13 12 11 10 10 8 10 9 7 8 5 5 9 7 10 13 13 11 10 10 10 13 12 12 14 13 11 10 9 9 11 13 12 14 12 14 18 14 9 10 7 19 16 16 13 9 7 9
13 14 13 13 14 14 14 14 13 14 14 14 15 16 16 17 17 17 17 18 17 16 13 11 8 5 7 8 12 20 11 4 5 6 8 9 9 10 10 10 11 12 10 9 7 8 8 7 6 10 11 9 6 6 8 6 10 10 10 9 11 11 13 14 14 14 13 9 12 7 8 8 13 16 14 14 17 11 7 7 8 15 15 14 13 12 10 8
14 14 13 14 14 14 14 14 14 14 15 15 16 16 17 17 18 18 18 18 17 16 15 9 6 6 6 10 7 2 5 4 5 6 9 10 11 12 11 9 9 9 5 8 7 2 6 4 8 10 9 12 9 6 7 8 6 8 8 9 8 8 11 13 13 15 13 9 10 5 8 9 14 15 18 15 17 13 10 8 10 14 14 11 13 12 12 11
14 14 14 14 15 15 15 15 14 15 16 17 16 16 17 18 18 18 17 15 15 14 10 8 6 4 6 8 12 6 6 3 7 9 10 12 12 10 10 9 10 8 5 7 5 3 4 5 8 9 8 10 12 10 8 8 8 8 7 9 9 10 10 16 15 13 11 9 9 7 8 10 14 16 14 20 17 16 8 9 11 11 13 13 13 12 9 9
14 14 14 15 15 15 15 16 16 16 16 17 18 17 18 19 18 16 16 14 13 8 7 6 8 9 8 10 2 6 8 11 12 11 10 12 11 9 10 9 7 8 7 7 6 2 5 7 9 8 9 9 10 9 8 7 8 9 9 8 10 10 10 2 12 13 11 5 7 9 8 10 12 9 10 15 15 8 5 9 9 8 16 14 13 10 10 9
14 15 14 15 15 16 16 16 16 16 17 17 19 19 18 17 14 12 12 12 8 7 7 4 8 10 5 2 3 7 10 12 9 11 12 11 11 10 12 10 9 10 7 8 7 5 7 8 6 9 10 10 9 9 9 9 8 9 10 8 10 11 8 8 13 12 14 11 8 13 9 10 16 17 2 11 7 8 10 10 11 5 11 12 12 11 9 9
14 15 15 15 16 16 16 16 17 17 18 18 17 21 18 16 15 14 12 8 6 6 8 10 9 7 14 17 10 15 13 9 11 11 12 10 11 11 11 10 8 10 9 9 9 10 8 8 7 8 8 10 10 10 10 10 9 8 9 9 9 12 14 8 11 14 8 10 8 8 11 10 14 12 8 7 11 8 11 10 12 8 13 11 12 11 12 10
14 15 16 16 16 17 17 16 17 17 17 17 20 22 19 14 7 7 6 6 6 4 5 7 8 8 7 8 16 2 10 9 10 13 13 13 11 10 7 8 9 11 10 9 8 12 8 8 8 9 10 10 11 12 11 13 13 13 13 10 11 8 9 8 4 14 8 11 8 10 10 8 11 12 12 6 7 13 12 9 9 9 14 12 10 9 11 9
15 15 16 16 17 17 17 16 16 17 17 15 11 10 4 4 5 3 8 10 13 10 8 9 16 13 4 7 11 3 9 10 10 11 12 12 10 12 11 10 11 10 10 9 10 12 8 9 10 10 10 11 13 15 15 15 16 15 13 10 11 9 13 12 11 12 8 3 5 5 9 10 11 13 12 11 12 12 12 10 8 9 14 11 10 13 10 11
15 16 16 16 17 17 17 16 15 15 14 11 12 8 4 6 6 1 5 11 17 18 20 14 16 14 11 4 9 11 9 9 7 9 13 11 12 11 11 11 11 10 11 13 10 9 10 10 11 13 14 14 13 14 12 17 17 16 10 10 10 8 8 6 4 17 12 5 5 8 11 13 12 13 13 14 12 15 12 12 9 11 12 14 16 14 14 12
15 16 16 17 17 18 18 17 15 16 14 11 9 7 9 6 5 3 6 7 11 21 21 16 14 15 13 9 1 8 7 8 11 11 11 13 13 12 12 13 13 11 11 12 11 9 10 11 11 14 13 12 13 13 14 14 15 14 6 10 11 9 7 7 13 3 1 5 3 6 11 12 13 13 14 13 12 10 13 9 10 10 12 10 15 13 11 10
15 15 16 16 17 18 18 18 15 14 11 7 7 12 11 8 6 4 7 9 13 14 16 19 16 14 13 9 8 3 8 11 11 13 14 12 14 14 12 12 12 11 11 12 11 10 9 11 18 16 12 12 13 12 7 7 10 6 5 9 11 9 8 7 10 12 14 6 3 6 11 10 11 11 11 7 9 10 14 18 12 12 10 13 15 15 14 15
15 16 16 17 18 17 18 16 17 15 11 13 12 14 10 5 5 7 7 7 7 9 14 15 15 14 14 13 11 12 12 9 11 15 15 13 12 13 11 14 13 12 12 13 15 12 11 15 17 14 14 15 13 7 7 6 6 8 10 10 11 11 12 12 9 7 7 2 4 7 9 11 10 12 12 12 14 16 14 16 16 11 13 12 8 16 16 15
15 16 16 17 18 19 17 18 9 9 9 10 13 14 7 3 5 5 6 6 8 10 10 11 9 10 11 9 7 14 12 11 13 10 16 14 14 12 12 10 9 11 13 14 15 14 14 15 4 11 14 14 8 7 9 9 9 9 12 14 14 14 14 13 13 12 7 9 9 13 7 9 11 16 17 14 13 17 17 16 16 14 13 11 12 10 14 15
14 15 16 17 18 17 19 8 6 5 9 9 5 5 1 4 4 5 5 4 7 7 10 10 7 8 6 11 7 10 9 12 12 10 15 13 13 12 8 10 9 11 14 14 12 8 11 13 10 9 5 4 6 9 10 11 10 9 9 13 14 16 16 15 15 10 9 9 7 11 10 7 8 11 9 11 15 18 16 15 14 14 12 11 10 10 11 16
15 15 16 16 16 16 9 2 11 13 7 7 3 1 3 1 3 4 3 5 7 10 10 9 10 4 6 10 11 9 9 11 11 13 14 15 14 11 12 10 10 9 9 9 7 11 11 15 13 11 12 10 8 9 10 11 9 10 10 10 15 17 18 18 15 11 11 9 11 12 8 10 10 8 10 13 14 11 8 8 12 12 9 12 4 2 3 6
14 15 15 16 16 12 7 11 13 8 4 7 3 3 4 3 3 3 4 4 3 11 9 8 2 6 8 12 13 13 2 3 14 14 15 16 13 12 13 12 12 12 13 10 13 5 8 11 10 9 9 8 10 10 11 13 10 8 10 14 13 11 14 12 6 8 10 10 12 10 13 11 10 10 12 14 15 12 11 5 15 15 12 9 11 10 11 15
14 15 15 16 18 19 13 9 9 12 8 7 5 4 3 3 5 3 3 5 7 5 4 9 1 7 5 13 12 15 6 8 6 14 15 14 15 10 12 15 13 12 13 13 9 9 11 10 10 9 7 9 9 11 11 11 12 11 14 11 11 6 5 8 9 11 9 8 11 11 9 11 10 6 8 6 6 12 7 12 9 8 10 10 9 11 10 11
15 14 15 15 15 11 7 9 11 14 11 8 6 4 3 3 4 5 2 5 7 7 10 5 9 10 10 12 11 13 12 8 7 10 15 11 14 14 12 9 13 14 13 14 13 13 6 10 11 8 13 12 10 11 11 11 11 6 9 9 8 8 6 7 8 9 8 9 13 13 13 12 11 7 7 5 3 4 5 7 6 8 8 11 12 12 10 9
15 15 15 13 8 6 10 8 14 16 13 7 5 6 5 4 5 4 7 2 7 5 8 9 10 11 14 14 10 13 12 9 8 9 12 11 12 13 9 8 10 10 10 10 13 16 15 8 7 7 7 2 9 11 10 9 5 9 6 6 5 6 9 9 9 9 8 11 12 14 14 13 12 5 2 8 8 11 7 4 7 7 7 7 7 10 10 12
16 16 16 11 11 10 8 5 9 12 4 5 3 5 5 4 6 5 5 5 10 9 9 10 10 11 14 13 12 15 11 11 10 10 10 10 10 12 12 10 9 9 10 11 11 12 13 12 8 9 8 12 10 11 9 12 11 10 9 7 8 7 5 7 7 8 9 9 9 11 14 11 11 7 6 12 14 13 12 9 9 10 10 10 11 11 7 8
14 16 20 15 14 11 14 16 14 10 7 5 5 5 6 4 7 9 8 5 3 6 10 8 13 11 13 14 12 15 13 11 14 12 12 13 11 13 15 15 11 11 7 9 10 10 9 14 17 13 10 12 13 11 9 12 12 10 10 8 9 7 7 7 7 4 8 10 9 13 7 11 2 9 8 10 10 10 9 8 9 10 9 9 9 7 7 5
15 16 13 11 11 12 11 11 9 9 6 5 5 6 6 6 6 9 8 9 6 3 5 7 8 5 9 8 10 13 11 10 14 11 13 10 12 10 12 18 17 14 12 6 10 10 7 11 12 10 9 11 13 13 10 8 6 9 9 10 9 8 7 5 7 6 8 5 5 11 7 5 12 4 5 10 7 7 6 8 6 5 6 7 5 5 4 4
18 20 15 13 12 14 16 14 11 8 5 5 6 7 6 7 8 4 7 6 8 1 6 4 4 7 8 10 11 9 9 9 13 12 12 12 11 10 12 12 18 15 11 9 7 5 13 9 7 14 12 15 14 13 14 13 10 10 11 10 10 9 5 9 2 4 4 4 6 3 4 8 5 4 6 6 8 6 6 8 6 4 6 5 7 8 8 9
18 10 8 7 9 10 13 10 10 8 6 6 7 6 8 8 6 7 1 8 8 5 7 7 8 8 7 9 10 12 14 6 12 11 10 12 12 12 13 11 14 17 11 9 4 7 7 10 11 10 11 11 13 11 12 12 9 6 10 11 11 9 9 4 4 10 5 3 7 3 4 3 7 7 6 9 7 8 4 4 4 5 7 8 8 8 9 9
9 10 8 11 12 10 11 10 8 7 6 7 7 6 9 8 6 7 5 7 8 3 2 6 8 8 7 8 8 8 9 5 7 9 8 11 11 14 13 13 14 17 19 10 8 7 6 6 9 11 12 13 11 12 12 12 11 6 8 7 10 11 10 6 5 2 5 7 4 5 9 6 4 1 7 6 7 5 6 2 5 3 7 7 4 5 1 1
9 8 10 9 10 11 11 11 9 7 7 6 6 10 6 9 3 2 6 8 5 5 7 7 2 8 7 9 10 12 10 6 7 8 9 9 6 12 14 11 15 15 19 15 9 5 8 8 8 12 11 11 13 12 14 13 13 12 8 4 7 4 8 6 2 6 5 6 3 8 10 8 4 3 3 6 6 6 6 5 3 7 9 3 2 2 7 8
9 8 5 8 7 8 10 10 8 7 7 7 5 6 8 10 9 4 9 7 6 7 6 6 7 5 8 6 4 6 8 6 7 9 8 7 10 9 8 10 5 15 13 15 11 4 2 6 5 9 10 8 11 9 9 10 13 15 12 12 7 7 5 3 3 6 6 7 5 7 11 2 4 1 6 5 1 6 7 4 10 9 9 5 4 5 2 1
7 5 5 9 6 8 10 9 7 8 7 7 7 8 4 8 3 4 1 3 4 5 6 9 1 6 7 7 4 4 7 7 6 7 10 4 4 5 7 1 6 6 9 12 11 11 5 6 6 5 9 8 9 7 10 9 9 11 11 10 7 6 3 5 3 6 6 3 5 4 1 2 3 5 6 3 1 4 3 8 9 8 5 9 11 11 12 13
8 3 2 6 9 9 10 8 8 9 9 8 11 11 8 4 3 4 3 2 7 4 8 5 5 5 2 6 8 1 2 8 6 5 7 3 3 2 7 11 5 10 17 11 11 2 2 6 5 6 8 9 8 10 13 12 10 8 8 10 10 8 9 8 7 8 7 4 1 5 1 4 4 5 7 5 4 5 7 9 3 0 9 10 10 13 13 12
6 4 4 8 10 11 10 8 7 7 7 9 7 8 3 5 4 4 2 4 7 4 6 6 4 7 5 7 5 3 6 9 6 7 6 4 3 3 3 10 9 2 4 5 8 5 5 3 3 5 7 8 6 1 6 11 13 9 10 10 9 9 9 7 8 5 7 4 8 2 3 3 3 7 10 7 9 7 4 5 5 7 9 10 11 11 11 11
7 2 5 11 9 11 8 6 7 7 9 4 5 4 5 4 7 2 4 4 7 5 3 4 5 6 5 7 4 5 6 7 4 2 6 6 4 3 4 5 9 10 4 2 10 7 2 2 5 8 7 9 10 7 1 6 10 12 8 9 7 8 8 10 8 3 2 2 1 3 2 4 5 7 8 6 2 5 6 10 10 9 9 10 11 10 10 11
4 3 4 8 8 6 4 5 5 5 8 4 4 4 4 4 6 2 7 9 6 8 6 3 3 2 6 1 3 4 2 4 3 3 5 4 2 2 5 2 6 6 6 2 1 4 2 4 7 5 5 5 6 9 7 6 5 5 7 8 12 15 18 12 7 3 2 6 3 3 1 1 5 5 7 5 0 8 7 9 10 10 9 9 9 9 8 10
2 2 5 7 7 6 5 3 5 3 6 3 4 5 5 5 3 5 8 2 2 1 4 4 4 4 5 3 6 6 5 5 4 2 11 5 2 3 8 6 6 7 2 7 3 3 1 3 3 4 6 7 7 6 3 2 4 5 7 12 12 17 16 11 3 6 2 3 5 2 3 2 2 5 8 6 7 8 11 11 11 11 9 8 7 8 8 9
4 3 3 6 6 7 6 6 10 8 4 4 2 5 5 2 6 3 6 4 2 5 2 3 7 6 6 3 5 5 7 6 4 3 1 5 3 1 4 2 5 7 2 1 1 2 2 0 3 4 4 2 1 3 7 11 5 4 10 11 12 13 14 10 1 3 4 9 1 5 4 6 7 6 7 8 7 8 10 11 10 9 10 8 8 9 10 10
1 2 2 4 6 7 8 9 10 4 4 4 3 5 7 6 3 7 4 5 4 5 4 7 5 5 5 4 4 6 6 10 9 5 4 9 1 2 4 3 3 6 2 3 3 2 3 2 4 5 3 5 1 2 3 10 9 3 6 9 11 14 12 13 8 3 3 5 1 3 7 8 7 7 8 7 7 9 10 10 10 10 11 10 10 11 13 13
2 4 7 4 4 5 6 6 6 3 4 7 1 3 3 5 4 3 1 5 7 5 6 4 5 6 3 2 3 3 5 6 3 4 1 3 7 3 5 3 1 2 2 1 1 2 3 1 5 5 3 4 2 3 4 8 7 5 9 8 11 12 15 11 7 9 2 1 1 4 7 6 8 9 9 9 9 10 11 11 11 11 11 13 13 13 13 14
5 2 3 12 4 4 3 3 3 4 6 3 3 1 2 1 4 4 3 1 3 2 5 1 5 11 6 9 6 3 2 4 3 2 6 3 4 3 3 4 3 7 3 2 3 2 3 2 10 7 4 3 1 2 3 2 10 4 9 9 9 11 10 10 9 10 10 10 7 11 13 11 7 7 8 9 9 10 10 10 11 13 14 13 14 13 14 14
1 2 3 4 6 4 3 5 4 4 4 2 2 3 1 4 2 6 6 1 1 1 3 4 1 6 2 3 4 3 2 5 5 3 4 3 3 1 2 2 3 5 6 4 2 3 2 1 6 3 4 2 3 2 1 5 5 4 13 13 12 11 11 11 11 11 8 7 8 7 9 8 5 6 9 10 10 10 11 14 13 12 12 13 13 13 13 14
4 3 6 5 3 5 3 4 4 4 3 3 3 5 3 5 3 2 2 7 1 2 4 2 2 7 3 4 1 3 5 1 1 1 5 3 4 2 2 1 5 2 0 1 1 1 1 1 4 1 3 1 1 1 5 10 7 12 15 16 14 12 10 8 9 7 7 8 6 7 7 4 4 8 9 11 11 13 13 12 11 10 12 12 12 13 14 14
6 11 9 4 1 3 4 4 5 4 3 3 2 6 2 4 5 4 2 6 3 7 2 2 5 5 4 3 3 2 5 4 3 6 7 5 3 5 3 2 4 3 0 2 2 3 2 3 2 1 2 1 4 4 4 8 5 3 11 11 10 10 10 11 12 13 11 6 5 4 5 7 8 8 9 11 12 13 13 12 10 11 11 11 12 12 13 13
Wind_Direction
328 328 330 330 333 332 335 329 325 324 323 322 322 318 318 318 318 319 319 317 322 321 321 321 322 322 320 320 322 323 320 312 305 291 258 239 143 112 86 103 138 135 161 208 221 202 200 213 221 219 223 227 212 234 244 218 243 235 228 247 251 251 245 254 29 21 355 43 52 50 49 344 249 31 325 305 238 239 320 237 92 96 51 62 81 123 143 150
327 326 327 326 325 333 332 330 326 323 322 318 319 318 316 315 315 314 313 316 317 317 319 318 318 318 317 319 322 321 320 300 293 282 257 168 141 133 112 121 152 158 177 215 211 201 204 207 213 205 223 220 205 231 217 215 206 230 234 235 250 230 231 291 38 4 314 63 352 29 243 59 297 16 13 313 322 207 214 208 120 93 79 85 123 135 152 151
325 326 325 323 324 325 331 329 326 323 320 318 316 315 314 313 312 312 311 312 313 315 314 316 316 316 318 321 321 319 311 304 288 265 254 140 144 135 137 144 170 173 194 204 214 207 214 200 206 208 215 235 197 226 205 207 188 223 251 233 233 255 323 335 334 297 303 25 322 340 18 349 325 284 357 265 302 297 287 285 176 118 117 100 117 155 145 159
326 322 322 322 321 325 330 332 327 323 320 318 315 313 313 310 309 309 309 309 309 311 314 312 313 316 316 317 323 318 302 295 277 213 101 132 136 140 156 151 181 189 214 236 223 222 224 225 211 210 219 236 205 241 186 197 214 175 233 245 248 233 360 295 16 344 346 342 315 320 287 336 263 293 15 304 284 267 284 267 127 118 123 141 153 171 166 178
322 321 318 320 321 322 329 329 326 324 320 318 315 312 312 309 308 308 307 305 305 306 308 310 309 312 315 314 316 303 300 284 70 91 131 132 125 148 154 172 173 201 214 235 262 240 231 231 209 212 239 229 238 203 234 213 223 253 223 241 258 281 292 311 17 23 339 302 300 283 273 281 287 341 264 253 261 280 337 13 108 133 137 152 173 172 189 182
323 318 317 317 318 320 323 328 326 322 321 316 314 312 310 310 308 307 305 304 304 304 303 305 308 311 312 315 302 287 277 331 105 123 145 143 134 139 157 161 190 220 211 234 246 231 225 228 223 213 219 250 243 226 201 243 205 240 244 258 266 277 300 284 45 294 36 311 290 291 297 304 309 295 297 305 293 280 334 81 117 135 148 164 165 172 188 176
317 318 315 316 316 318 321 325 325 321 319 317 313 312 310 308 308 306 304 304 302 301 303 305 309 314 318 305 275 245 241 266 312 127 115 147 136 143 151 169 169 215 216 224 233 231 213 229 224 218 227 233 244 242 230 213 228 245 257 242 246 245 248 254 270 303 283 281 271 267 269 270 311 274 258 255 249 279 264 223 131 140 169 158 167 177 175 175
315 314 313 314 315 316 318 320 322 320 318 316 314 312 310 308 308 307 305 302 300 300 302 304 309 316 329 321 306 224 224 259 157 133 143 136 146 147 162 177 182 191 213 223 226 225 211 226 218 221 237 232 219 226 227 236 230 231 236 257 276 293 316 303 300 292 273 270 274 279 278 266 257 257 266 269 293 294 272 95 138 141 160 173 165 165 88 63
314 311 314 312 314 315 317 318 318 320 316 315 313 311 312 309 306 305 302 301 299 300 299 303 308 315 317 287 288 302 262 164 119 140 148 148 144 158 172 164 185 194 212 225 234 229 219 216 232 228 219 219 240 263 234 235 229 230 253 258 256 255 252 238 245 252 263 273 270 264 253 259 257 258 259 264 259 257 264 60 249 150 156 168 148 93 98 130
311 311 309 311 311 314 315 316 316 317 316 312 312 311 310 307 303 302 301 299 298 297 299 301 304 315 303 277 273 261 120 126 128 149 156 147 145 158 189 173 180 202 215 220 225 227 216 214 230 216 249 279 301 288 257 216 254 28 268 243 248 257 262 249 246 251 252 254 252 249 252 253 245 239 249 227 252 255 250 221 233 181 146 104 79 107 133 148
308 309 309 309 311 313 313 313 315 314 314 312 309 309 306 304 303 300 299 297 296 295 294 296 302 307 290 275 268 256 52 289 133 143 160 146 155 166 190 182 185 206 225 219 226 222 227 245 243 255 288 262 239 247 249 255 256 250 241 268 275 280 271 274 272 265 260 251 245 253 267 268 268 258 250 262 233 233 207 237 233 100 82 92 81 68 305 206
306 307 309 310 311 311 314 312 313 313 312 310 306 306 305 302 301 299 297 297 294 290 285 285 290 284 276 269 256 247 28 244 151 166 154 165 165 182 192 185 187 217 225 220 221 223 246 251 248 258 243 68 245 284 245 238 263 259 270 268 263 256 254 248 249 244 233 248 253 262 265 249 241 239 240 244 256 244 191 244 233 103 120 111 138 153 193 222
307 307 309 311 311 312 311 312 311 313 310 308 306 303 302 301 298 298 297 295 289 283 281 275 273 252 277 277 246 240 250 218 193 137 173 177 178 189 204 195 196 223 233 249 205 234 245 268 289 269 269 257 288 259 17 298 233 253 263 269 268 264 259 241 232 231 227 225 242 220 243 249 238 236 234 241 259 247 178 218 216 122 128 153 148 160 181 200
307 306 309 311 311 311 311 310 313 311 311 306 305 303 300 300 297 296 294 286 284 282 278 270 261 263 252 260 282 27 210 199 165 192 192 182 189 191 201 197 212 229 271 278 311 315 228 243 278 271 280 261 237 360 280 235 269 263 251 236 250 263 260 239 220 204 219 210 219 112 266 273 275 248 211 222 244 223 191 217 239 135 140 157 149 147 167 165
308 309 312 313 312 311 312 312 312 311 309 305 303 302 300 297 294 293 289 283 271 265 264 250 238 243 213 257 249 212 26 297 206 203 184 191 196 173 201 190 207 230 227 251 263 255 285 276 249 251 244 247 270 281 256 244 231 230 246 235 234 244 252 261 205 178 209 192 193 192 246 266 272 275 237 204 219 220 172 207 231 149 144 144 140 143 149 146
309 309 313 312 312 313 313 313 313 311 307 306 303 303 298 290 288 288 281 278 289 294 221 227 207 217 293 276 269 92 210 214 211 201 185 200 195 187 192 184 210 218 225 219 264 214 236 247 237 236 247 238 250 245 259 252 224 220 234 252 246 219 260 198 150 161 205 187 169 217 252 253 245 253 289 190 198 155 182 238 239 165 140 141 136 141 139 144
311 310 312 313 313 314 314 313 313 311 308 306 307 298 292 288 285 287 282 282 271 215 214 230 191 192 249 118 139 214 204 213 206 195 189 206 190 202 175 185 204 211 204 228 215 242 215 229 217 252 249 258 223 226 243 239 240 221 204 240 257 252 211 252 159 189 193 212 180 194 234 259 282 287 13 102 135 166 215 221 249 168 147 140 137 144 146 149
310 312 312 314 312 314 313 313 313 310 310 307 307 298 286 276 278 284 268 251 235 211 222 248 282 236 245 256 245 227 206 191 195 190 194 189 211 206 186 189 189 215 192 216 205 232 198 219 207 231 218 225 234 220 224 227 225 231 203 212 236 251 270 263 165 173 207 151 244 241 219 253 269 265 134 197 148 212 242 246 236 182 152 146 142 155 156 153
310 310 312 314 312 312 313 312 312 311 311 313 299 277 261 258 258 230 254 188 189 181 220 194 189 191 354 196 217 50 165 157 188 184 189 189 197 223 201 192 202 199 201 216 182 220 182 230 204 233 226 208 224 229 221 238 241 233 216 214 222 245 238 258 278 133 166 181 191 233 256 234 257 272 287 303 188 184 221 234 238 213 152 164 157 166 157 162
311 309 312 313 312 310 311 312 310 311 317 316 320 311 240 231 183 190 211 219 223 221 287 148 195 236 322 163 188 130 107 145 177 191 179 191 182 202 210 200 196 208 212 214 175 209 183 216 214 214 225 222 217 230 239 240 250 265 307 321 300 246 235 213 219 158 176 232 242 285 270 254 253 268 266 242 237 235 197 200 219 242 150 171 175 157 176 172
310 312 311 314 309 310 308 311 311 307 316 306 302 290 259 327 307 88 170 217 220 239 253 256 202 225 239 250 176 135 168 180 214 183 188 169 195 187 197 202 200 204 218 221 207 186 212 220 225 223 219 232 226 217 238 256 262 277 310 285 267 286 278 266 223 159 145 192 202 246 256 257 255 255 253 264 280 277 270 190 208 243 204 173 176 174 178 179
311 311 312 311 310 308 309 308 312 309 305 289 268 260 262 346 3 339 293 283 234 223 233 248 243 229 240 271 151 181 189 203 201 194 172 173 178 202 168 205 200 213 203 226 223 185 208 227 232 231 230 231 243 231 214 240 259 261 253 265 263 262 287 277 253 42 321 117 225 258 280 273 263 249 244 255 256 261 274 277 188 216 248 219 178 177 172 173
310 311 310 310 309 308 310 309 306 311 303 272 245 244 258 313 326 340 308 281 278 265 234 221 225 235 237 218 224 191 232 211 191 193 164 192 169 216 172 199 203 221 212 210 223 199 212 221 228 228 237 235 232 239 253 261 254 272 228 234 252 258 256 239 246 217 202 216 329 308 282 280 278 279 290 282 259 241 245 261 233 197 226 242 176 179 176 164
310 311 309 310 309 311 310 316 305 287 243 236 250 254 286 330 317 318 306 267 296 249 217 212 219 214 220 216 193 211 218 218 232 185 156 192 197 200 217 191 214 214 223 207 221 221 219 233 216 213 224 224 234 212 225 248 256 229 248 255 246 247 247 267 289 255 332 289 137 260 261 269 270 271 263 250 243 256 255 252 256 219 212 226 216 179 175 173
311 309 309 310 311 313 317 315 295 235 233 223 241 255 267 316 308 323 313 274 231 252 199 213 208 210 211 203 179 208 198 242 228 206 161 193 203 187 220 195 223 214 227 218 214 234 241 249 289 192 216 224 214 214 216 233 243 251 232 239 254 263 264 252 253 285 223 227 204 204 256 253 238 241 245 252 248 230 229 237 249 248 216 214 229 197 175 177
308 309 310 310 311 317 314 298 233 277 234 235 259 214 250 298 347 344 287 268 259 188 141 204 155 172 107 175 167 211 202 227 215 230 163 192 215 212 186 226 190 224 216 233 220 229 239 251 221 232 324 142 199 228 225 210 242 244 235 217 235 249 262 271 276 285 284 263 278 286 284 272 247 252 258 246 235 238 218 213 230 240 232 221 220 229 181 175
308 308 310 310 311 322 311 271 348 315 281 231 173 272 300 285 5 308 280 211 255 149 185 114 185 136 242 168 183 180 208 209 199 226 187 175 211 212 233 209 187 243 241 227 236 209 213 243 232 204 216 222 221 227 227 220 223 240 254 245 221 215 222 233 252 263 269 292 289 276 268 291 287 277 279 283 297 285 257 210 218 220 241 235 239 343 322 210
306 307 307 307 307 307 279 310 310 288 327 39 345 56 257 17 290 287 260 240 237 148 161 147 309 132 220 159 187 200 1 55 174 194 223 157 217 189 237 220 213 203 222 238 224 216 222 230 206 193 226 229 232 232 230 215 231 242 232 238 254 247 281 291 274 265 255 261 255 251 252 250 243 248 255 278 282 269 243 38 31 17 4 16 44 27 11 7
304 305 307 308 305 293 275 255 280 274 314 328 11 292 4 320 276 276 252 259 116 172 41 150 187 185 190 161 196 216 185 207 224 160 201 171 195 227 203 241 250 216 218 236 253 225 195 240 240 195 205 226 235 234 234 223 220 232 266 281 329 343 239 260 262 257 255 247 251 247 249 270 279 288 264 249 279 9 10 50 30 27 18 6 18 32 22 5
304 304 307 310 309 284 231 224 243 255 269 303 315 331 324 301 256 226 184 257 144 183 177 95 195 175 188 178 203 202 222 197 267 151 186 191 181 226 250 237 235 256 219 202 240 256 249 177 255 225 217 234 238 239 235 228 238 267 243 263 252 235 243 252 256 275 270 253 251 252 255 259 275 282 279 280 56 80 69 28 30 43 21 12 12 19 14 4
301 299 299 304 286 299 328 263 236 237 242 262 310 299 278 244 236 227 188 173 189 117 143 150 180 178 182 195 190 188 215 212 195 173 173 186 192 206 225 230 252 245 258 224 199 235 258 215 212 258 21 250 251 248 217 252 227 228 242 236 263 231 213 235 243 225 240 250 257 264 255 237 261 257 22 86 69 53 44 38 34 13 36 19 22 11 11 16
299 295 291 284 272 285 269 247 356 327 14 3 309 255 227 226 216 239 201 64 258 136 218 160 178 183 186 200 215 171 192 203 174 181 193 182 196 196 201 231 178 224 223 226 211 205 237 238 213 231 206 255 232 248 232 204 221 218 231 224 226 232 227 231 213 229 229 244 255 255 255 252 237 311 115 69 55 42 34 19 19 16 10 19 13 4 28 29
293 291 288 274 268 257 248 258 285 299 315 297 272 242 225 232 214 217 247 164 137 156 204 208 162 191 192 192 228 173 189 206 164 192 213 180 216 195 205 223 192 209 224 202 238 200 215 243 208 183 211 200 242 227 224 217 193 216 220 218 216 234 238 242 235 248 261 251 269 270 275 257 159 66 38 66 79 76 73 65 37 21 18 20 12 351 358 14
294 291 285 266 254 242 249 258 261 268 273 268 241 219 231 232 224 209 240 201 129 121 45 197 141 179 212 221 218 184 173 221 172 187 196 191 205 203 202 214 232 193 242 228 229 209 222 202 242 223 207 176 220 238 234 256 181 216 232 230 223 233 247 235 225 240 248 295 318 305 274 248 250 90 61 74 75 58 60 76 60 38 31 21 10 2 344 356
297 287 265 263 248 248 243 245 252 256 263 238 227 223 202 224 252 209 204 228 132 210 224 154 234 200 208 241 251 199 223 188 193 185 190 212 195 219 195 206 216 237 201 241 212 246 224 245 233 217 234 167 209 219 249 247 226 209 214 227 243 237 241 270 260 262 284 302 276 272 280 25 66 122 65 89 86 84 63 60 65 53 36 20 26 15 6 13
298 273 236 231 224 236 216 222 230 229 235 225 226 214 219 217 204 215 46 352 79 220 169 153 240 216 224 211 230 231 167 262 182 207 194 212 200 208 204 201 206 212 225 217 177 218 217 243 233 228 236 232 195 214 222 249 252 186 205 216 229 242 250 225 243 266 275 246 259 281 288 69 139 47 20 44 56 53 49 55 71 49 53 46 31 7 355 344
290 290 241 225 222 213 193 198 195 203 221 242 228 219 231 244 224 28 25 341 23 2 7 240 180 231 209 214 198 208 132 171 228 222 203 198 212 205 207 207 203 197 226 237 207 212 255 231 230 238 209 227 240 195 230 220 246 275 244 240 234 230 252 240 252 214 232 249 251 225 233 150 207 71 355 355 54 55 29 29 65 36 70 58 19 314 346 222
302 289 285 253 214 186 173 183 185 195 225 235 239 260 286 273 108 4 44 301 221 187 268 250 208 218 217 223 191 186 166 194 172 220 254 190 249 187 209 214 189 217 200 217 259 179 218 240 234 238 221 212 223 229 212 224 225 245 235 244 247 177 213 222 255 240 242 241 258 238 231 84 98 163 317 340 6 358 340 41 17 50 70 42 89 329 341 333
282 276 276 210 148 157 164 163 188 191 215 227 236 240 250 275 54 325 23 345 311 342 272 253 286 205 276 255 224 195 158 197 172 215 237 173 228 10 355 14 241 212 216 200 207 222 122 275 240 238 226 195 217 214 242 217 205 230 244 244 233 265 266 248 228 245 230 248 243 238 251 73 55 79 137 192 7 346 320 353 43 36 12 5 52 66 239 297
260 223 198 157 146 146 147 164 185 206 221 220 222 235 216 254 177 93 115 271 249 245 248 293 296 303 214 274 294 206 151 198 198 227 224 15 333 340 296 307 323 311 232 204 222 187 210 171 259 231 224 213 217 196 231 233 220 197 217 242 223 237 246 215 183 233 240 266 256 272 262 127 13 12 54 55 100 117 49 23 30 23 349 30 28 24 21 23
238 275 283 158 145 142 149 180 195 198 213 234 259 271 187 246 62 168 170 314 297 305 320 294 269 219 271 245 239 18 187 276 222 209 228 109 283 207 28 355 346 1 327 278 242 164 248 164 229 242 222 226 235 201 223 235 231 227 219 223 238 231 224 224 240 190 218 227 249 269 258 81 87 29 29 41 54 70 78 102 96 25 33 26 25 25 19 19
249 221 206 161 142 157 172 179 210 202 223 220 223 232 53 36 270 82 204 177 237 266 196 281 310 325 324 306 320 329 270 209 212 221 31 56 314 248 35 341 331 172 318 336 311 63 21 20 249 253 242 233 236 347 293 339 317 257 226 235 235 256 259 250 256 240 219 256 278 229 122 112 48 58 54 29 6 10 47 92 81 53 44 35 31 23 15 17
240 197 251 168 160 181 203 227 196 210 226 213 2 58 101 201 252 113 278 173 204 237 265 200 257 251 256 285 317 290 331 338 325 277 95 104 46 13 343 337 338 313 279 4 313 24 339 238 230 242 250 255 263 252 287 284 301 267 252 324 311 273 275 257 257 43 253 118 231 13 320 93 74 75 98 83 317 49 27 37 47 47 41 36 30 22 19 15
302 84 223 161 185 207 217 216 196 211 222 209 276 278 16 345 207 177 237 148 257 158 221 245 248 234 299 348 286 260 57 294 231 238 66 61 26 8 321 310 300 309 353 351 32 329 282 217 242 249 244 251 292 283 243 242 339 354 17 6 357 7 356 345 344 110 267 241 166 139 213 123 60 74 94 106 15 71 46 49 40 44 44 36 27 25 25 23
341 313 281 169 189 195 211 255 293 231 200 219 211 215 200 212 269 350 332 345 124 285 341 304 297 21 252 203 247 267 243 252 284 110 109 70 113 345 300 112 326 24 216 205 290 330 249 325 268 231 233 223 217 228 280 298 297 327 6 15 11 27 12 357 3 22 6 306 213 164 109 160 141 87 75 64 70 54 45 35 36 34 41 45 36 33 30 32
196 178 191 192 191 198 235 225 242 266 169 191 195 201 221 253 129 240 253 256 308 341 275 325 275 159 257 290 282 254 257 227 258 283 67 90 43 5 284 103 119 156 142 204 345 154 329 29 257 303 308 326 83 267 285 254 293 347 2 18 29 34 32 18 339 60 46 311 346 28 116 129 109 84 75 66 49 54 49 41 29 25 18 20 47 41 30 33
44 345 194 172 182 209 219 222 225 230 181 158 186 195 209 198 265 181 174 283 134 268 256 211 269 217 191 276 318 300 285 261 199 236 217 141 105 64 303 24 83 60 283 258 139 119 63 50 333 356 344 323 203 214 220 293 293 344 5 24 37 39 44 60 39 51 307 296 210 46 102 112 97 68 50 50 46 49 51 40 29 24 17 13 27 38 32 27
221 219 208 200 188 185 197 221 224 196 87 196 93 315 235 177 206 84 147 221 221 166 284 186 210 272 264 237 256 258 297 308 319 269 149 104 140 153 331 299 82 64 273 231 148 236 192 215 27 24 328 316 102 319 32 332 309 16 10 2 43 43 50 47 33 3 85 121 64 87 92 99 64 49 46 49 46 48 46 39 33 26 18 18 23 24 26 24
238 347 326 273 238 126 220 112 172 131 187 222 135 204 217 139 203 137 276 219 335 102 245 68 278 272 248 213 159 271 234 278 316 346 23 0 350 125 183 260 10 10 53 347 31 72 283 230 169 226 282 280 274 55 62 55 306 340 53 39 63 60 55 77 46 34 51 78 75 80 82 70 53 47 44 48 49 50 44 35 33 29 22 18 23 24 25 24
231 288 227 200 241 140 127 117 154 184 143 97 172 188 203 157 162 175 154 271 216 258 260 268 201 282 269 333 281 261 355 51 84 19 59 332 275 265 55 320 332 5 350 38 27 79 292 84 23 341 287 208 123 237 102 97 341 92 48 38 46 82 68 53 49 25 27 66 117 139 101 86 75 60 52 45 42 44 41 35 33 28 24 23 24 26 25 26
286 194 255 295 159 97 141 193 164 165 119 200 226 124 213 137 181 117 335 130 89 224 259 235 232 299 326 291 267 232 102 128 76 186 243 209 295 94 235 252 238 238 120 313 270 145 275 47 93 300 279 243 98 59 18 53 77 59 43 29 26 32 57 46 50 34 31 10 18 83 74 69 99 83 62 47 44 43 41 32 27 28 25 25 28 27 25 27
282 273 256 269 159 210 213 146 144 188 155 69 26 124 247 127 171 52 57 334 193 182 244 322 12 337 326 284 277 320 354 48 308 341 333 341 246 263 271 195 230 287 21 292 57 291 352 273 257 260 266 18 50 29 74 78 120 28 25 20 18 38 72 71 59 46 35 17 2 38 58 16 46 61 61 47 44 42 42 32 23 26 29 30 31 31 33 33